Stations météo

réclame
Mon MeteoGroup
Farnborough, Grande-Bretagne (3768): Température de l'air & dewpoint: 12.01.2019 12:00:00 - 18.01.2019 12:00:00 (GMT)Farnborough, Grande-Bretagne (3768): Température de l'air -100cm: 12.01.2019 12:00:00 - 18.01.2019 12:00:00 (GMT)Farnborough, Grande-Bretagne (3768): Vitesse du vent & gusts: 12.01.2019 12:00:00 - 18.01.2019 12:00:00 (GMT)Farnborough, Grande-Bretagne (3768): Direction du vent: 12.01.2019 12:00:00 - 18.01.2019 12:00:00 (GMT)Farnborough, Grande-Bretagne (3768): reduced air pressure: 12.01.2019 12:00:00 - 18.01.2019 12:00:00 (GMT)Farnborough, Grande-Bretagne (3768): visibility: 12.01.2019 12:00:00 - 18.01.2019 12:00:00 (GMT)Farnborough, Grande-Bretagne (3768): Quantités de précipitations: 12.01.2019 12:00:00 - 18.01.2019 12:00:00 (GMT)
Date & Time tt [°C] td [°C] tt -100cm [°C] ff [km/h] ff [knt] fx [km/h] fx [knt] dd ppp [hPa] vv [km] rr [mm]
18.01.2019 12:00:00 4,0 0,0 - 8 4 - - ESE - 10 -
18.01.2019 11:00:00 3,1 0,0 - 13 7 - - SE 1017,2 22 0,0
18.01.2019 10:00:00 1,5 -1,5 - 9 5 - - SSE 1017,6 10 0,0
18.01.2019 09:00:00 -1,1 -3,0 8,0 5 3 - - - 1017,6 10 0,0
18.01.2019 08:00:00 -2,1 -4,1 - 4 2 - - ESE 1017,9 10 0,0
18.01.2019 07:00:00 -2,1 -3,4 - 8 4 - - SE 1018,0 10 0,0
18.01.2019 06:00:00 -2,4 -3,5 - 4 2 - - E 1018,2 28 0,0
18.01.2019 05:00:00 -2,6 -3,2 - 0 0 - - N 1018,6 26 0,0
18.01.2019 04:00:00 -2,4 -3,0 - 0 0 - - N 1018,9 23 0,0
18.01.2019 03:00:00 -3,0 -3,9 - 2 1 - - WSW 1019,5 30 0,0
18.01.2019 02:00:00 -2,2 -3,1 - 0 0 - - N 1019,7 21 0,0
18.01.2019 01:00:00 -2,0 -3,0 - 2 1 - - SW 1019,8 28 0,0
18.01.2019 00:00:00 -2,2 -3,5 - 0 0 - - N 1019,8 27 0,0
17.01.2019 23:00:00 -2,8 -4,5 - 2 1 - - SW 1019,6 27 0,0
17.01.2019 22:00:00 -1,8 -3,9 - 5 3 - - - 1019,4 10 0,0
17.01.2019 21:00:00 -1,4 -4,2 - 8 4 - - WSW 1018,9 10 0,0
17.01.2019 20:00:00 0,5 -3,1 - 8 4 - - W 1018,8 10 0,0
17.01.2019 19:00:00 0,1 -3,1 - 11 6 - - WSW 1018,4 10 0,0
17.01.2019 18:00:00 1,7 -3,7 - 2 1 - - - 1017,5 10 0,0
17.01.2019 17:00:00 2,0 -3,9 - 9 5 - - NW 1017,1 10 0,0
17.01.2019 16:00:00 3,7 -3,9 - 15 8 - - NW 1016,1 10 0,0
17.01.2019 15:00:00 4,3 -3,6 - 21 11 - - NW 1015,2 10 0,0
17.01.2019 14:00:00 4,4 -3,4 - 22 12 - - NNW 1014,5 10 0,0
17.01.2019 13:00:00 4,0 -3,6 - 24 13 - - NNW 1014,0 10 0,0
17.01.2019 12:00:00 3,7 -1,6 - 22 12 - - NW 1013,6 10 0,0
17.01.2019 11:00:00 2,8 -0,2 - 22 12 - - NW 1012,9 10 0,0
17.01.2019 10:00:00 1,6 -0,6 - 16 9 - - NW 1012,0 10 0,0
17.01.2019 09:00:00 1,2 0,4 8,0 16 9 - - NNW 1010,5 10 0,4
17.01.2019 08:00:00 2,8 1,5 - 15 8 - - WNW 1008,4 10 0,0
17.01.2019 07:00:00 1,9 0,8 - 11 6 - - W 1007,2 10 0,0
17.01.2019 06:00:00 2,3 1,6 - 13 7 - - W 1006,2 25 0,0
17.01.2019 05:00:00 3,6 2,8 - 13 7 - - WNW 1005,0 26 0,2
17.01.2019 04:00:00 4,1 3,2 - 18 10 - - WNW 1004,3 11 0,2
17.01.2019 03:00:00 4,3 3,3 - 15 8 - - W 1003,4 29 0,0
17.01.2019 02:00:00 4,4 3,5 - 9 5 - - W 1002,7 30 0,0
17.01.2019 01:00:00 3,1 2,9 - 5 3 - - SSW 1002,7 21 0,0
17.01.2019 00:00:00 2,7 2,5 - 8 4 - - SW 1002,9 14 0,0
16.01.2019 23:00:00 2,9 2,5 - 11 6 - - SSW 1003,3 13 0,0
16.01.2019 22:00:00 2,6 2,3 - 8 4 - - SW 1003,7 12 0,0
16.01.2019 21:00:00 3,3 2,9 - 13 7 - - SW 1003,7 10 0,0
16.01.2019 20:00:00 4,4 3,6 - 11 6 - - WSW 1003,7 10 0,0
16.01.2019 19:00:00 4,5 3,5 - 9 5 - - WSW 1003,6 10 0,0
16.01.2019 18:00:00 5,2 4,3 - 13 7 - - WSW 1003,6 10 0,0
16.01.2019 17:00:00 5,3 4,6 - 9 5 - - W 1003,0 10 0,6
16.01.2019 16:00:00 5,9 4,9 - 26 14 61 33 WNW 1003,0 7 1,2
16.01.2019 15:00:00 9,5 7,9 - 22 12 - - SSW 1001,6 10 0,0
16.01.2019 14:00:00 9,4 8,4 - 24 13 - - SSW 1002,3 10 0,6
16.01.2019 13:00:00 9,0 8,2 - 28 15 - - SSW 1003,2 7 0,2
16.01.2019 12:00:00 8,9 8,3 - 28 15 - - SSW 1004,1 4,0 0,0
16.01.2019 11:00:00 8,7 7,9 - 28 15 - - SSW 1005,4 7 0,0
16.01.2019 10:00:00 8,5 7,9 - 26 14 - - SSW 1006,2 9 0,2
16.01.2019 09:00:00 8,3 7,5 8,0 26 14 - - SSW 1006,7 4,2 0,0
16.01.2019 08:00:00 8,2 7,5 - 26 14 - - SSW 1007,1 6 0,0
16.01.2019 07:00:00 8,3 7,6 - 22 12 - - SSW 1007,8 8 0,0
16.01.2019 06:00:00 8,0 7,3 - 22 12 - - SSW 1008,4 12 0,2
16.01.2019 05:00:00 8,0 7,3 - 28 15 - - SSW 1009,4 7 0,0
16.01.2019 04:00:00 7,9 7,2 - 22 12 - - SSW 1010,2 21 0,0
16.01.2019 03:00:00 8,1 6,9 - 22 12 - - SW 1011,3 9 0,0
16.01.2019 02:00:00 7,8 7,2 - 18 10 - - SSW 1012,1 18 0,0
16.01.2019 01:00:00 8,3 6,5 - 18 10 - - SSW 1012,9 40 0,0
16.01.2019 00:00:00 8,3 6,3 - 21 11 - - SSW 1013,7 40 0,0
15.01.2019 23:00:00 7,7 6,2 - 13 7 - - SSW 1014,6 35 0,0
15.01.2019 22:00:00 7,6 5,8 - 18 10 - - SSW 1015,3 35 0,0
15.01.2019 21:00:00 7,3 4,6 - 18 10 - - SW 1015,8 10 0,0
15.01.2019 20:00:00 8,1 4,8 - 15 8 - - SSW 1016,2 10 0,0
15.01.2019 19:00:00 8,7 5,0 - 22 12 - - SW 1016,8 10 0,0
15.01.2019 18:00:00 8,6 5,2 - 18 10 - - SW 1017,0 10 0,0
15.01.2019 17:00:00 8,7 5,4 - 21 11 - - SW 1017,4 10 0,0
15.01.2019 16:00:00 8,8 5,6 - 18 10 - - SW 1017,9 10 0,0
15.01.2019 15:00:00 9,0 6,0 - 21 11 - - SW 1018,2 10 0,0
15.01.2019 14:00:00 8,9 6,2 - 22 12 - - SW 1018,7 10 0,0
15.01.2019 13:00:00 8,6 6,0 - 26 14 - - SW 1019,4 10 0,0
15.01.2019 12:00:00 8,5 5,8 - 24 13 - - SW 1020,3 10 0,0
15.01.2019 11:00:00 8,0 5,6 - 22 12 - - WSW 1021,0 10 0,0
15.01.2019 10:00:00 6,9 5,0 - 18 10 - - SW 1021,3 10 0,0
15.01.2019 09:00:00 6,5 4,4 8,0 15 8 - - SW 1021,5 10 0,0
15.01.2019 08:00:00 6,3 4,0 - 16 9 - - SW 1021,5 10 0,0
15.01.2019 07:00:00 5,3 3,5 - 13 7 - - SW 1021,7 10 0,0
15.01.2019 06:00:00 4,0 2,3 - 9 5 - - WSW 1021,8 30 0,0
15.01.2019 05:00:00 2,3 0,7 - 9 5 - - SW 1022,0 27 0,0
15.01.2019 04:00:00 3,3 1,4 - 13 7 - - WSW 1022,6 28 0,0
15.01.2019 03:00:00 2,8 0,8 - 11 6 - - WSW 1023,0 35 0,0
15.01.2019 02:00:00 3,3 1,4 - 11 6 - - WSW 1023,2 29 0,0
15.01.2019 01:00:00 3,1 1,4 - 8 4 - - WSW 1023,5 30 0,0
15.01.2019 00:00:00 3,8 1,6 - 13 7 - - WSW 1023,6 30 0,0
14.01.2019 23:00:00 1,8 -1,2 - 8 4 - - WSW 1023,8 35 0,0
14.01.2019 22:00:00 3,1 0,5 - 8 4 - - WSW 1023,7 30 0,0
14.01.2019 21:00:00 3,5 -0,4 - 11 6 - - SW 1023,7 10 0,0
14.01.2019 20:00:00 6,6 0,5 - 11 6 - - WSW 1023,6 10 0,0
14.01.2019 19:00:00 7,5 1,0 - 11 6 - - WSW 1023,3 10 0,0
14.01.2019 18:00:00 7,6 1,6 - 11 6 - - WSW 1023,3 10 0,0
14.01.2019 17:00:00 7,9 1,9 - 11 6 - - WNW 1023,3 10 0,0
14.01.2019 16:00:00 8,3 2,1 - 13 7 - - WNW 1022,8 10 0,0
14.01.2019 15:00:00 8,6 2,7 - 13 7 - - WNW 1022,1 10 0,0
14.01.2019 14:00:00 8,4 3,0 - 16 9 - - NW 1022,2 10 0,0
14.01.2019 13:00:00 8,9 3,5 - 16 9 - - NW 1022,0 10 0,0
14.01.2019 12:00:00 8,1 3,2 - 16 9 - - NW 1022,1 10 0,0
14.01.2019 11:00:00 7,9 3,0 - 15 8 - - NW 1021,9 10 0,0
14.01.2019 10:00:00 6,8 2,6 - 13 7 - - W 1021,4 10 0,0
14.01.2019 09:00:00 6,6 2,3 8,0 15 8 - - WNW 1021,0 10 0,0
14.01.2019 08:00:00 6,5 2,2 - 11 6 - - W 1019,9 10 0,0
14.01.2019 07:00:00 6,5 2,1 - 11 6 - - W 1019,2 10 0,0
14.01.2019 06:00:00 6,4 2,1 - 8 4 - - WSW 1019,1 28 0,0
14.01.2019 05:00:00 6,4 1,7 - 11 6 - - W 1018,1 29 0,0
14.01.2019 04:00:00 6,9 1,8 - 16 9 - - WNW 1017,7 30 0,0
14.01.2019 03:00:00 7,1 2,0 - 15 8 - - WNW 1017,0 30 0,0
14.01.2019 02:00:00 7,5 1,9 - 18 10 - - WNW 1016,4 30 0,0
14.01.2019 01:00:00 7,9 1,8 - 18 10 - - WNW 1015,7 30 0,0
14.01.2019 00:00:00 8,7 2,0 - 24 13 50 27 NW 1015,9 35 0,0
13.01.2019 23:00:00 9,0 3,5 - 21 11 - - WNW 1015,3 27 0,0
13.01.2019 22:00:00 9,1 3,6 - 13 7 - - WNW 1014,5 35 0,0
13.01.2019 21:00:00 10,2 3,7 - 24 13 48 26 WNW 1013,9 35 0,0
13.01.2019 20:00:00 10,5 5,6 - 18 10 - - WNW 1012,9 10 0,0
13.01.2019 19:00:00 10,1 7,6 - 18 10 - - W 1012,4 10 0,0
13.01.2019 18:00:00 10,3 7,7 - 22 12 - - WSW 1012,4 10 0,0
13.01.2019 17:00:00 10,2 8,0 - 16 9 - - W 1012,7 10 0,0
13.01.2019 16:00:00 9,9 8,1 - 18 10 48 26 W 1012,8 10 0,0
13.01.2019 15:00:00 10,3 7,6 - 26 14 50 27 W 1013,0 10 0,0
13.01.2019 14:00:00 10,7 7,5 - 24 13 50 27 W 1013,2 10 0,0
13.01.2019 13:00:00 10,8 7,7 - 24 13 46 25 W 1013,8 10 0,0
13.01.2019 12:00:00 10,6 7,2 - 26 14 46 25 W 1014,2 10 0,0
13.01.2019 11:00:00 9,9 6,5 - 18 10 - - W 1014,8 10 0,0
13.01.2019 10:00:00 9,5 6,2 - 18 10 - - W 1015,4 10 0,0
13.01.2019 09:00:00 9,4 6,4 7,9 18 10 - - W 1015,8 10 0,0
13.01.2019 08:00:00 9,6 6,7 - 13 7 - - W 1015,9 28 0,0
13.01.2019 07:00:00 9,6 7,3 - 18 10 - - W 1015,7 21 0,0
13.01.2019 06:00:00 9,8 7,8 - 24 13 - - W 1016,1 24 0,0
13.01.2019 05:00:00 9,6 7,6 - 22 12 - - W 1017,0 26 0,0
13.01.2019 04:00:00 9,8 7,6 - 21 11 - - W 1017,6 24 0,0
13.01.2019 03:00:00 9,2 7,1 - 15 8 - - W 1018,2 30 0,0
13.01.2019 02:00:00 9,6 6,9 - 16 9 - - W 1018,7 40 0,0
13.01.2019 01:00:00 9,0 6,5 - 16 9 - - W 1019,1 30 0,0
13.01.2019 00:00:00 8,7 6,3 - 18 10 - - W 1019,5 40 0,0
12.01.2019 23:00:00 9,7 6,5 - 21 11 - - W 1019,7 30 0,0
12.01.2019 22:00:00 9,3 6,4 - 24 13 - - W 1019,6 35 0,0
12.01.2019 21:00:00 8,8 6,1 - 24 13 - - W 1020,1 45 0,0
12.01.2019 20:00:00 8,5 5,7 - 15 8 - - W 1020,4 10 0,2
12.01.2019 19:00:00 8,4 5,3 - 18 10 - - W 1020,5 10 0,0
12.01.2019 18:00:00 9,1 5,2 - 16 9 - - W 1020,8 10 0,0
12.01.2019 17:00:00 8,9 5,0 - 13 7 - - W 1021,5 10 0,0
12.01.2019 16:00:00 9,3 5,3 - 16 9 - - WNW 1021,6 10 0,0
12.01.2019 15:00:00 9,7 6,8 - 13 7 - - W 1021,7 10 0,0
12.01.2019 14:00:00 9,8 6,7 - 16 9 - - WNW 1021,8 10 0,0
12.01.2019 13:00:00 9,1 7,8 - 15 8 - - W 1022,6 10 0,0
12.01.2019 12:00:00 9,4 7,4 - 18 10 - - W 1023,2 4,0 0,0

tt = Température de l'air
td = dewpoint
tt -100cm = Température de l'air -100cm
ff = Vitesse du vent
fx = gusts
dd = Direction du vent
ppp = reduced air pressure
vv = visibility
rr = Quantités de précipitations

stations d'obs. à proximité